Weather in Makung

Taiwan     23°34′04″N   119°34′47″E
temp.,
°C
wind,
m/s
gust,
m/s
humid.,
%
clouds,
%
prec.,
mm/h
press.,
hPa
HPBL,
m
12 august, fri
fri1223:00+29wsw44780 0.0 1010413
02:00+29sw44760 0.0 1009526
05:00+29sw33770 0.0 1009565
08:00+28wsw44770 0.0 1010552
11:00+29wsw44760 0.0 1010605
14:00+29wsw55750 0.0 1009669
17:00+29wsw44743 0.0 1008575
20:00+29sw55765 0.0 1008483
13 august, sat
sat1323:00+29sw667713 0.0 1009559
02:00+29sw56785 0.0 1008637
05:00+29sw5579100 0.0 1008630
08:00+29sw337998 0.0 1009604
11:00+29sw33777 0.0 1009628
14:00+29wsw55776 0.0 1008697
17:00+29sw5577100 0.0 1007626
20:00+29sw447977 0.0 1008501
14 august, sun
sun1423:00+29ssw55807 0.0 1009489
02:00+29ssw55795 0.0 1007588
05:00+29sw33785 0.0 1007568
08:00+29sw22775 0.0 1009564
11:00+29wsw22765 0.0 1009581
14:00+29w337443 0.0 1007574
17:00+30wsw3372100 0.0 1006553
20:00+29ssw33775 0.0 1008365
15 august, mon
mon1523:00+29ssw457877 0.0 1008501
02:00+29sw457854 0.0 1007573
05:00+28wsw44805 0.4 1007415
08:00+28wsw448089 1.4 1008469
11:00+28wsw34810 0.9 1008454
14:00+29sw45750 1.1 1006646
17:00+29sw45775 0.0 1006630
20:00+29ssw56825 0.0 1007624
16 august, tue
tue1623:00+29ssw67835 0.0 1007637
02:00+29ssw78820 0.1 1006789
05:00+29ssw67790 1.2 1007706
08:00+29sw45790 4.3 1008558
11:00+29sw45760 0.1 1008586
14:00+29sw44750 0.1 1006681
17:00+29ssw55760 0.0 1006671
20:00+29s46805 0.0 1007600